Location: Wellington
(30.8842°S, 26.4306°E)
Time: 19:08:37
(UTC+00:00)

Daily predictions for brighter satellites

Satellite Brightness Start Highest point End
(mag) Time Altitude Azimuth Time Altitude Azimuth Time Altitude Azimuth
SJ-7 4.4 17:11:05 10° SSE 17:14:48 51° E 17:18:26 10° N
Cosmos 1763 Rocket 3.5 17:11:04 10° N 17:16:00 56° ENE 17:20:58 10° SSE
Meteor 2-3 Rocket 4.5 17:12:54 10° NNE 17:17:46 32° E 17:22:41 10° SSE
RESURS DK-1 3.5 17:17:44 10° NNE 17:20:46 21° ENE 17:23:50 10° SE
Nadezhda 4 Rocket 4.0 17:16:08 10° N 17:22:17 86° E 17:28:29 10° S
MOS 1 Rocket 4.2 17:19:17 10° S 17:23:39 50° WSW 17:27:48 10° NNW
Cosmos 1486 Rocket 4.2 17:22:44 10° S 17:27:55 55° ESE 17:33:00 10° NNE
Atlas Centaur 2 1.8 17:24:54 10° WNW 17:29:28 73° N 17:35:15 10° E
CZ-2D R/B 3.6 17:25:36 10° S 17:29:32 75° WSW 17:33:30 10° NNW
Cosmos 1536 Rocket 4.2 17:29:52 10° NNW 17:34:08 60° W 17:38:28 10° S
PSLV R/B 3.4 17:31:08 10° SSE 17:35:21 84° ENE 17:39:28 10° N
BREEZE-M DEB (TANK) 3.5 17:23:39 10° NW 17:35:29 84° SW 17:39:14 10° SE
Lacrosse 5 rocket 2.7 17:32:11 10° WSW 17:35:39 32° WNW 17:39:07 10° N
Cosmos 1777 Rocket 4.3 17:33:12 10° S 17:38:22 52° ESE 17:43:26 10° NNE
Cosmos 1933 3.8 17:36:59 10° SSE 17:40:37 37° E 17:43:49 12° NNE
Centaur AC-116 4.2 17:25:51 10° W 17:40:47 63° N 17:44:05 14° ENE
Lacrosse 4 Rocket 3.6 17:38:37 10° SW 17:42:00 24° WNW 17:45:22 10° NNW
BREEZE-M DEB 4.3 17:40:41 10° W 17:42:36 24° SSW 17:44:58 10° SSE
Hubble Space Telescope 0.7 17:38:58 10° W 17:42:45 60° N 17:45:44 15° ENE
SL-08 R/B 3.5 17:39:02 10° N 17:43:54 81° WNW 17:48:53 10° SSW
EXPRESS MD2 2.9 17:45:39 10° WSW 17:48:01 39° NW 17:49:19 18° NNE
Cosmos 2098 Rocket 3.8 17:44:39 10° SSW 17:48:19 42° W 17:51:26 10° NNW
USA 59 Rocket 4.0 17:49:38 10° SSE 17:50:10 10° SSE 17:50:41 10° SSE
SEDSat Delta rocket 4.0 17:43:37 10° W 17:50:18 89° S 17:56:48 10° E
COBE Rocket 4.3 17:46:49 12° NNE 17:51:06 47° ESE 17:55:55 10° S
SL-19 R/B 4.4 17:49:57 10° S 17:55:49 80° WSW 18:01:17 10° NNW
Cosmos 841 Rocket 4.2 17:52:37 10° NNE 17:57:07 30° E 18:01:37 10° SE
SPOT 5 4.4 17:55:26 10° SE 17:58:48 18° E 17:59:18 18° ENE
Cosmos 1346 Rocket 2.7 17:58:36 10° N 18:02:16 78° W 18:06:00 10° S
Cosmos-2242 4.5 17:59:24 10° SSE 18:02:22 19° ESE 18:02:58 18° E
YAOGAN 1 4.0 17:58:20 10° S 18:02:23 39° WSW 18:06:21 10° NW
Cosmos 2082 Rocket 2.4 17:57:05 10° N 18:02:26 46° ENE 18:07:53 10° SSE
Cosmos 1697 Rocket 3.0 17:57:29 10° S 18:03:00 49° ESE 18:06:30 21° NE
NOSS 3-2 (C) 3.6 18:00:41 10° SW 18:06:14 54° WNW 18:10:23 14° N
Cosmos 468 Rocket 4.0 18:05:57 10° NNW 18:11:03 80° WSW 18:16:14 10° SSE
IRIDIUM 104 4.3 18:07:30 10° N 18:12:43 83° E 18:18:01 10° S
Meteor 1-31 Rocket 2.5 18:10:27 10° SSE 18:13:57 56° E 18:15:36 28° NNE
Helios 1A 4.2 18:17:56 24° E 18:18:21 24° ESE 18:21:39 10° SSE
ATLAS 5 CENTAUR R/B 2.8 18:11:58 10° NNW 18:18:57 84° WSW 18:26:09 10° SSE
IRIDIUM 114 4.4 18:16:38 10° N 18:21:51 79° W 18:27:10 10° S
Meteor 2-20 4.4 18:17:05 10° S 18:23:16 86° E 18:28:04 17° N
Cosmos 1354 Rocket 4.0 18:18:25 10° SSW 18:23:47 84° ESE 18:26:46 27° NNE
SJ-6B 3.3 18:24:55 10° S 18:28:22 51° WSW 18:31:46 10° NNW
Gbstr 26 Del rocket 3.6 18:25:42 10° SW 18:30:49 55° NW 18:32:29 34° N
CSL-04 Debris 4.5 18:28:09 10° SSE 18:33:22 44° E 18:34:45 37° NE
Cosmos 1758 Rocket 3.9 18:33:56 41° E 18:33:56 41° E 18:37:59 10° SSE
Aureole 1 Rocket 3.9 18:33:51 10° S 18:37:01 27° SE 18:37:01 27° SE
COSMOS 2406 3.4 18:35:53 32° NNE 18:38:12 49° ENE 18:43:45 10° SSE
Exosat Rocket 3.9 18:32:36 10° N 18:39:50 69° ENE 18:45:16 10° SSE
BREEZE-M TANK 3.1 18:36:58 10° WNW 18:41:03 63° SSW 18:45:28 10° SE
Resurs 01 Rocket 3.0 18:38:21 10° S 18:42:30 38° WSW 18:46:35 10° NW
SL-4 R/B 1.9 18:41:24 10° NW 18:45:24 84° SW 18:49:30 10° SE
Palapa 6 Rocket 4.2 18:40:46 10° WNW 18:45:37 37° N 18:45:49 37° N
Cosmos 1553 Rocket 3.9 18:41:05 10° S 18:47:21 73° E 18:49:42 40° NNE
Meteor 1-26 Rocket 4.3 18:41:16 10° S 18:47:24 76° E 18:49:37 41° NNE
NOSS 2-3 (C) 4.5 18:43:04 10° SSW 18:50:28 75° WNW 18:52:28 42° N
ERS-1 Rocket 4.4 18:47:01 10° SE 18:49:43 23° ESE 18:49:43 23° ESE
SL-08 ROCKET BODY 4.5 18:48:07 18° N 18:52:41 78° W 18:58:51 10° S
Cosmos 1980 Rocket 2.3 18:50:06 10° SSW 18:55:46 62° ESE 18:56:47 53° ENE
CZ-4B R/B 3.7 18:52:49 10° SSE 18:57:09 40° ESE 18:57:09 40° ESE
USA 238 DEB 3.3 18:53:02 10° SSW 18:59:24 84° WNW 19:01:03 51° NNE
USA 238 3.3 18:53:08 10° SSW 18:59:31 85° WNW 19:01:08 51° NNE
Okean 1 3.8 18:56:06 10° S 18:58:53 48° SSE 18:58:53 48° SSE
Cosmos 2058 Rocket 3.4 18:59:27 10° SSW 19:03:46 60° W 19:04:22 54° NW
CZ-4B DEB 4.0 18:58:22 10° SSE 19:03:54 80° ENE 19:05:11 54° N
Cosmos 2221 4.3 19:00:33 10° SSE 19:02:32 21° SE 19:02:32 21° SE
Feng Yun 1-1 Rocket 4.3 19:00:19 10° SSE 19:06:16 68° ENE 19:07:16 58° NNE
Intelsat 5-3 Rocket 4.3 19:02:24 10° NW 19:04:03 24° NW 19:04:03 24° NW
Cosmos 1626 Rocket 4.0 19:07:09 47° NW 19:07:58 56° W 19:12:16 10° S
CZ-4 R/B 2.0 19:06:26 10° S 19:10:02 48° WSW 19:10:02 48° WSW
Cosmos 1898 Rocket 3.5 19:07:51 10° S 19:13:04 64° ESE 19:13:04 64° ESE
USA 215 4.4 19:10:13 10° ESE 19:13:08 26° ESE 19:13:08 26° ESE
COSMOS 2455 4.1 19:11:26 10° S 19:16:26 26° ESE 19:16:43 26° ESE
Okean O Rocket 3.6 19:12:34 10° SSE 19:13:50 17° SE 19:13:50 17° SE
Atlas Centaur 2 2.1 19:12:30 10° W 19:17:52 84° N 19:18:25 74° ENE
Hubble Space Telescope 3.0 19:18:57 10° W 19:19:55 16° WNW 19:19:55 16° WNW
Cosmos 1417 Rocket 4.4 19:16:05 10° S 19:22:30 78° E 19:23:12 70° NE
Meteor 2-6 Rocket 4.0 19:17:18 10° S 19:22:48 80° ESE 19:22:48 80° ESE
MOS 1 4.2 19:20:17 10° SSE 19:25:46 74° ESE 19:25:46 74° ESE
ADEOS 3.6 19:23:14 10° S 19:28:31 76° WSW 19:28:44 74° WNW
Terra 2.9 19:26:35 10° SSE 19:29:30 36° SSE 19:29:30 36° SSE
USA 281 3.0 19:26:41 10° SSE 19:33:19 78° ENE 19:33:51 73° NNE
Cosmos 2266 Rocket 4.5 19:33:38 38° NW 19:35:43 54° W 19:41:41 10° S
Cosmos 2322 Rocket 4.3 19:33:30 10° SSE 19:35:51 14° SE 19:35:51 14° SE
SEDSat Delta rocket 3.7 19:30:02 10° W 19:36:36 88° WNW 19:36:36 88° WNW
SPOT 5 4.1 19:32:07 10° S 19:36:44 40° WSW 19:38:23 31° WNW
CZ-3 Stage 3 3.5 19:33:12 10° W 19:35:59 22° W 19:35:59 22° W
Cosmos 372 Rocket 4.5 19:34:30 10° SSW 19:39:20 54° W 19:39:20 54° W
USA 59 Rocket 2.5 19:34:40 10° SSW 19:43:02 34° SE 19:44:57 30° ESE
SL-16 R/B 3.4 19:44:57 10° S 19:48:56 31° SE 19:48:56 31° SE
Cosmos 2333 Rocket 3.8 19:45:32 10° S 19:49:02 23° SE 19:49:02 23° SE
Cosmos 2369 4.2 19:52:33 10° SSW 19:57:18 58° WSW 19:57:18 58° WSW
Okean O Rocket 4.4 20:49:50 10° SSW 20:51:05 14° SW 20:51:05 14° SW
USA 215 4.1 20:53:07 10° SSE 20:59:17 44° SW 21:00:24 41° WSW
COSMOS 2455 4.5 20:56:49 10° SW 20:59:51 27° WSW 20:59:51 27° WSW
Cosmos 2360 Rocket 3.9 21:07:13 10° SSW 21:09:55 29° SSW 21:09:55 29° SSW
Cosmos 2322 Rocket 4.0 21:15:15 10° SSW 21:17:38 26° SSW 21:17:38 26° SSW
USA 59 Rocket 2.3 21:24:12 10° SW 21:30:38 42° WSW 21:30:38 42° WSW
Cosmos 2333 Rocket 4.4 21:29:14 10° SW 21:31:02 19° SW 21:31:02 19° SW
Cosmos 2219 Rocket 4.2 21:39:30 10° SSW 21:41:38 24° SSW 21:41:38 24° SSW
ATLAS 2AS CENTAUR R/B 3.6 21:47:37 45° SSW 21:47:37 45° SSW 21:52:54 10° SSE
ATLAS 3B R/B 4.4 22:17:31 10° S 22:22:24 23° SE 22:23:18 22° ESE
Cosmos 2297 Rocket 4.0 22:31:14 27° S 22:31:14 27° S 22:33:46 10° SSE
Cosmos 2237 Rocket 3.9 22:43:00 10° S 22:46:11 29° SSE 22:46:11 29° SSE
USA 267 4.4 23:13:40 33° SW 23:13:40 33° SW 23:17:01 10° SW
Cosmos 2227 Rocket 3.6 23:19:05 33° S 23:19:05 33° S 23:22:18 10° S
CZ-2C R/B 4.3 23:12:07 10° SSE 23:15:02 29° SE 23:15:02 29° SE
Cosmos 2218 Rocket 4.5 23:36:31 59° SSE 23:36:31 59° SSE 23:41:36 10° S
CZ-2D R/B 3.3 23:37:09 40° SE 23:37:09 40° SE 23:41:17 10° S
Resurs 1-4 Rocket 3.2 23:37:50 41° SE 23:37:50 41° SE 23:41:46 10° S
Cosmos 2263 Rocket 3.2 23:44:17 43° S 23:44:17 43° S 23:48:10 10° SSE
Cosmos 2082 4.3 23:50:44 53° SE 23:50:44 53° SE 23:55:08 10° SSE
SL-16 R/B 3.3 23:49:11 10° S 23:54:32 40° ESE 23:55:38 36° E
